Time,TemperatureF,DewpointF,PressureIn,WindDirection,WindDirectionDegrees,WindSpeedMPH,WindSpeedGustMPH,Humidity,HourlyPrecipIn,Conditions,Clouds,dailyrainin,SoftwareType,DateUTC
2013-01-17 00:04:00,50.0,50.0,29.90,SSW,210,0.0,0.0,99,0.11,,,0.22,,2013-01-17 05:04:00,
2013-01-17 00:12:00,50.0,50.0,29.90,SSW,210,0.0,0.0,99,0.11,,,0.22,,2013-01-17 05:12:00,
2013-01-17 00:22:00,51.0,51.0,29.90,SSW,210,0.0,0.0,99,0.12,,,0.24,,2013-01-17 05:22:00,
2013-01-17 00:33:00,51.0,51.0,29.90,SSW,210,0.0,0.0,99,0.11,,,0.26,,2013-01-17 05:33:00,
2013-01-17 00:42:00,51.0,51.0,29.90,SSW,210,0.0,0.0,99,0.11,,,0.26,,2013-01-17 05:42:00,
2013-01-17 00:53:00,51.0,51.0,29.90,SSW,210,0.0,0.0,99,0.07,,,0.26,,2013-01-17 05:53:00,
2013-01-17 01:02:00,51.0,51.0,29.89,SSW,210,0.0,0.0,99,0.05,,,0.27,,2013-01-17 06:02:00,
2013-01-17 01:12:00,51.0,51.0,29.89,SSW,210,0.0,0.0,99,0.04,,,0.28,,2013-01-17 06:12:00,
2013-01-17 01:22:00,51.0,51.0,29.89,SSW,210,0.0,0.0,99,0.04,,,0.28,,2013-01-17 06:22:00,
2013-01-17 01:32:00,51.0,51.0,29.89,SSW,210,0.0,0.0,99,0.02,,,0.28,,2013-01-17 06:32:00,
2013-01-17 01:42:00,51.0,51.0,29.89,SSW,210,0.0,0.0,99,0.02,,,0.28,,2013-01-17 06:42:00,
2013-01-17 01:53:00,51.0,51.0,29.89,SSW,210,0.0,0.0,99,0.02,,,0.28,,2013-01-17 06:53:00,
2013-01-17 02:02:00,51.0,51.0,29.89,SSW,210,0.0,0.0,99,0.01,,,0.28,,2013-01-17 07:02:00,
2013-01-17 02:12:00,51.0,51.0,29.89,SSW,210,0.0,0.0,99,0.01,,,0.28,,2013-01-17 07:12:00,
2013-01-17 02:22:00,51.0,51.0,29.89,SSW,210,0.0,1.0,99,0.00,,,0.28,,2013-01-17 07:22:00,
2013-01-17 02:33:00,51.0,51.0,29.89,SSW,210,0.0,2.0,99,0.00,,,0.28,,2013-01-17 07:33:00,
2013-01-17 02:42:00,51.0,51.0,29.89,SSW,210,0.0,2.0,99,0.00,,,0.28,,2013-01-17 07:42:00,
2013-01-17 02:53:00,52.0,52.0,29.89,SSW,210,0.0,0.0,99,0.00,,,0.28,,2013-01-17 07:53:00,
2013-01-17 03:02:00,52.0,52.0,29.89,SSW,210,0.0,1.0,99,0.00,,,0.28,,2013-01-17 08:02:00,
2013-01-17 03:12:00,52.0,52.0,29.89,SSW,210,0.0,1.0,99,0.00,,,0.28,,2013-01-17 08:12:00,
2013-01-17 03:22:00,52.0,52.0,29.89,NW,307,0.0,3.0,99,0.00,,,0.28,,2013-01-17 08:22:00,
2013-01-17 03:32:00,52.0,52.0,29.89,NNW,347,0.0,2.0,99,0.00,,,0.28,,2013-01-17 08:32:00,
2013-01-17 03:43:00,52.0,52.0,29.89,NNW,347,0.0,2.0,99,0.00,,,0.28,,2013-01-17 08:43:00,
2013-01-17 03:53:00,52.0,52.0,29.88,NNW,347,0.0,1.0,99,0.00,,,0.28,,2013-01-17 08:53:00,
2013-01-17 04:02:00,52.0,52.0,29.88,NNW,347,0.0,0.0,99,0.00,,,0.28,,2013-01-17 09:02:00,
2013-01-17 04:12:00,52.0,52.0,29.88,NNW,347,0.0,0.0,99,0.00,,,0.28,,2013-01-17 09:12:00,
2013-01-17 04:22:00,52.0,52.0,29.88,NNW,347,0.0,0.0,99,0.00,,,0.28,,2013-01-17 09:22:00,
2013-01-17 04:32:00,52.0,52.0,29.87,NNW,347,0.0,0.0,99,0.00,,,0.28,,2013-01-17 09:32:00,
2013-01-17 04:42:00,52.0,52.0,29.87,NNW,347,0.0,0.0,99,0.00,,,0.28,,2013-01-17 09:42:00,
2013-01-17 04:53:00,52.0,52.0,29.87,NNW,347,0.0,0.0,99,0.00,,,0.28,,2013-01-17 09:53:00,
2013-01-17 05:02:00,52.0,52.0,29.86,NNW,347,0.0,1.0,99,0.00,,,0.28,,2013-01-17 10:02:00,
2013-01-17 05:12:00,52.0,52.0,29.86,NNW,347,0.0,1.0,99,0.00,,,0.28,,2013-01-17 10:12:00,
2013-01-17 05:22:00,52.0,52.0,29.88,NNW,341,0.0,3.0,99,0.02,,,0.30,,2013-01-17 10:22:00,
2013-01-17 05:32:00,52.0,52.0,29.89,NNW,338,0.0,3.0,99,0.04,,,0.32,,2013-01-17 10:32:00,
2013-01-17 05:42:00,52.0,52.0,29.89,NNW,338,0.0,3.0,99,0.04,,,0.32,,2013-01-17 10:42:00,
2013-01-17 05:53:00,52.0,52.0,29.89,North,360,0.0,3.0,99,0.06,,,0.33,,2013-01-17 10:53:00,
2013-01-17 06:03:00,51.0,51.0,29.89,North,356,0.0,5.0,99,0.08,,,0.35,,2013-01-17 11:03:00,
2013-01-17 06:12:00,51.0,51.0,29.89,North,356,0.0,5.0,99,0.08,,,0.35,,2013-01-17 11:12:00,
2013-01-17 06:22:00,51.0,51.0,29.89,NW,311,2.0,6.0,99,0.06,,,0.35,,2013-01-17 11:22:00,
2013-01-17 06:33:00,51.0,51.0,29.89,North,5,0.0,0.0,99,0.04,,,0.35,,2013-01-17 11:33:00,
2013-01-17 06:43:00,51.0,51.0,29.89,North,5,0.0,0.0,99,0.04,,,0.35,,2013-01-17 11:43:00,
2013-01-17 06:53:00,51.0,51.0,29.90,East,81,0.0,5.0,99,0.03,,,0.35,,2013-01-17 11:53:00,
2013-01-17 07:02:00,51.0,51.0,29.90,NNW,341,0.0,7.0,99,0.03,,,0.37,,2013-01-17 12:02:00,
2013-01-17 07:12:00,51.0,51.0,29.90,NNW,341,0.0,7.0,99,0.03,,,0.37,,2013-01-17 12:12:00,
2013-01-17 07:23:00,51.0,51.0,29.91,NE,50,1.0,3.0,99,0.03,,,0.37,,2013-01-17 12:23:00,
2013-01-17 07:33:00,51.0,51.0,29.91,NNE,29,1.0,3.0,99,0.03,,,0.37,,2013-01-17 12:33:00,
2013-01-17 07:43:00,51.0,51.0,29.91,NNE,29,1.0,3.0,99,0.03,,,0.37,,2013-01-17 12:43:00,
2013-01-17 07:53:00,51.0,51.0,29.92,NNE,14,1.0,4.0,99,0.04,,,0.39,,2013-01-17 12:53:00,
2013-01-17 08:03:00,51.0,51.0,29.92,ENE,77,0.0,3.0,99,0.03,,,0.40,,2013-01-17 13:03:00,
2013-01-17 08:12:00,51.0,51.0,29.92,ENE,77,0.0,3.0,99,0.03,,,0.40,,2013-01-17 13:12:00,
2013-01-17 08:23:00,51.0,51.0,29.92,North,360,2.0,5.0,99,0.03,,,0.40,,2013-01-17 13:23:00,
2013-01-17 08:33:00,51.0,51.0,29.92,ENE,64,1.0,4.0,99,0.03,,,0.40,,2013-01-17 13:33:00,
2013-01-17 08:43:00,51.0,51.0,29.92,ENE,64,1.0,4.0,99,0.03,,,0.40,,2013-01-17 13:43:00,
2013-01-17 08:53:00,51.0,51.0,29.93,NNE,27,0.0,5.0,99,0.02,,,0.41,,2013-01-17 13:53:00,
2013-01-17 09:03:00,51.0,51.0,29.94,North,353,0.0,3.0,99,0.02,,,0.42,,2013-01-17 14:03:00,
2013-01-17 09:12:00,51.0,51.0,29.94,North,353,0.0,3.0,99,0.02,,,0.42,,2013-01-17 14:12:00,
2013-01-17 09:23:00,51.0,51.0,29.95,North,355,0.0,2.0,99,0.02,,,0.42,,2013-01-17 14:23:00,
2013-01-17 09:33:00,51.0,51.0,29.95,NNW,345,0.0,4.0,99,0.03,,,0.43,,2013-01-17 14:33:00,
2013-01-17 09:43:00,51.0,51.0,29.95,NNW,345,0.0,4.0,99,0.03,,,0.43,,2013-01-17 14:43:00,
2013-01-17 09:53:00,51.0,51.0,29.94,North,349,1.0,3.0,99,0.02,,,0.43,,2013-01-17 14:53:00,
2013-01-17 10:03:00,51.0,51.0,29.94,NNW,342,0.0,3.0,99,0.01,,,0.43,,2013-01-17 15:03:00,
2013-01-17 10:12:00,51.0,51.0,29.94,NNW,342,0.0,3.0,99,0.01,,,0.43,,2013-01-17 15:12:00,
2013-01-17 10:23:00,51.0,51.0,29.93,East,97,1.0,7.0,99,0.01,,,0.43,,2013-01-17 15:23:00,
2013-01-17 10:33:00,51.0,51.0,29.93,SE,133,1.0,7.0,99,0.00,,,0.43,,2013-01-17 15:33:00,
2013-01-17 10:43:00,51.0,51.0,29.93,SE,133,1.0,7.0,99,0.00,,,0.43,,2013-01-17 15:43:00,
2013-01-17 10:53:00,51.0,51.0,29.93,North,5,0.0,3.0,99,0.01,,,0.44,,2013-01-17 15:53:00,
2013-01-17 11:03:00,51.0,51.0,29.93,NE,36,1.0,9.0,99,0.01,,,0.44,,2013-01-17 16:03:00,
2013-01-17 11:12:00,51.0,51.0,29.93,NE,36,1.0,9.0,99,0.01,,,0.44,,2013-01-17 16:12:00,
2013-01-17 11:23:00,51.0,51.0,29.93,NE,54,0.0,2.0,99,0.01,,,0.44,,2013-01-17 16:23:00,
2013-01-17 11:33:00,51.0,50.0,29.92,North,10,0.0,5.0,98,0.01,,,0.44,,2013-01-17 16:33:00,
2013-01-17 11:43:00,51.0,50.0,29.92,North,10,0.0,5.0,98,0.01,,,0.44,,2013-01-17 16:43:00,
2013-01-17 11:53:00,51.0,50.0,29.90,NE,51,1.0,6.0,98,0.00,,,0.44,,2013-01-17 16:53:00,
2013-01-17 12:03:00,51.0,50.0,29.90,ENE,62,1.0,7.0,98,0.00,,,0.44,,2013-01-17 17:03:00,
2013-01-17 12:13:00,51.0,50.0,29.90,ENE,62,1.0,7.0,98,0.00,,,0.44,,2013-01-17 17:13:00,
2013-01-17 12:23:00,51.0,50.0,29.89,North,355,0.0,9.0,98,0.00,,,0.44,,2013-01-17 17:23:00,
2013-01-17 12:33:00,51.0,50.0,29.88,NNW,327,0.0,6.0,98,0.00,,,0.44,,2013-01-17 17:33:00,
2013-01-17 12:43:00,51.0,50.0,29.88,NNW,327,0.0,6.0,98,0.00,,,0.44,,2013-01-17 17:43:00,
2013-01-17 12:53:00,51.0,50.0,29.87,ENE,74,3.0,11.0,98,0.00,,,0.44,,2013-01-17 17:53:00,
2013-01-17 13:04:00,51.0,50.0,29.85,North,10,0.0,14.0,98,0.00,,,0.44,,2013-01-17 18:04:00,
2013-01-17 13:12:00,51.0,50.0,29.85,North,10,0.0,14.0,98,0.00,,,0.44,,2013-01-17 18:12:00,
2013-01-17 13:23:00,51.0,50.0,29.84,NE,37,2.0,12.0,98,0.00,,,0.44,,2013-01-17 18:23:00,
2013-01-17 13:33:00,51.0,50.0,29.84,ENE,74,1.0,8.0,97,0.00,,,0.44,,2013-01-17 18:33:00,
2013-01-17 13:43:00,51.0,50.0,29.84,ENE,74,1.0,8.0,97,0.00,,,0.44,,2013-01-17 18:43:00,
2013-01-17 13:53:00,50.0,49.0,29.84,ENE,74,1.0,10.0,96,0.00,,,0.43,,2013-01-17 18:53:00,
2013-01-17 14:03:00,50.0,49.0,29.83,ENE,58,0.0,12.0,96,0.00,,,0.43,,2013-01-17 19:03:00,
2013-01-17 14:13:00,50.0,49.0,29.83,ENE,58,0.0,12.0,96,0.00,,,0.43,,2013-01-17 19:13:00,
2013-01-17 14:23:00,50.0,49.0,29.83,ENE,70,0.0,7.0,96,0.00,,,0.43,,2013-01-17 19:23:00,
2013-01-17 14:33:00,50.0,49.0,29.82,NNE,24,1.0,7.0,96,0.00,,,0.43,,2013-01-17 19:33:00,
2013-01-17 14:43:00,50.0,49.0,29.82,NNE,24,1.0,7.0,96,0.00,,,0.43,,2013-01-17 19:43:00,
2013-01-17 14:53:00,50.0,49.0,29.81,ENE,64,4.0,11.0,96,0.00,,,0.41,,2013-01-17 19:53:00,
2013-01-17 15:03:00,50.0,49.0,29.80,NNE,14,0.0,7.0,97,0.00,,,0.41,,2013-01-17 20:03:00,
2013-01-17 15:12:00,50.0,49.0,29.80,NNE,14,0.0,7.0,97,0.00,,,0.41,,2013-01-17 20:12:00,
2013-01-17 15:23:00,50.0,49.0,29.80,NE,43,1.0,10.0,97,0.00,,,0.41,,2013-01-17 20:23:00,
2013-01-17 15:33:00,50.0,49.0,29.79,NE,43,2.0,6.0,97,0.00,,,0.41,,2013-01-17 20:33:00,
2013-01-17 15:43:00,50.0,49.0,29.79,NE,43,2.0,6.0,97,0.00,,,0.41,,2013-01-17 20:43:00,
2013-01-17 15:54:00,50.0,49.0,29.79,ENE,61,0.0,10.0,97,0.00,,,0.38,,2013-01-17 20:54:00,
2013-01-17 16:03:00,50.0,49.0,29.80,NE,35,1.0,6.0,97,0.00,,,0.38,,2013-01-17 21:03:00,
2013-01-17 16:13:00,50.0,49.0,29.80,NE,35,1.0,6.0,97,0.00,,,0.38,,2013-01-17 21:13:00,
2013-01-17 16:23:00,49.0,48.0,29.80,ENE,57,2.0,11.0,97,0.00,,,0.38,,2013-01-17 21:23:00,
2013-01-17 16:34:00,49.0,48.0,29.79,East,89,6.0,15.0,96,0.01,,,0.39,,2013-01-17 21:34:00,
2013-01-17 16:43:00,49.0,48.0,29.79,East,89,6.0,15.0,96,0.01,,,0.39,,2013-01-17 21:43:00,
2013-01-17 16:53:00,48.0,47.0,29.80,East,79,3.0,20.0,95,0.02,,,0.39,,2013-01-17 21:53:00,
2013-01-17 17:03:00,47.0,46.0,29.79,East,101,2.0,13.0,96,0.02,,,0.39,,2013-01-17 22:03:00,
2013-01-17 17:12:00,47.0,46.0,29.79,East,101,2.0,13.0,96,0.02,,,0.39,,2013-01-17 22:12:00,
2013-01-17 17:23:00,47.0,46.0,29.80,NNE,17,3.0,11.0,96,0.02,,,0.39,,2013-01-17 22:23:00,
2013-01-17 17:33:00,47.0,46.0,29.79,East,83,1.0,16.0,96,0.01,,,0.39,,2013-01-17 22:33:00,
2013-01-17 17:43:00,47.0,46.0,29.79,East,83,1.0,16.0,96,0.01,,,0.39,,2013-01-17 22:43:00,
2013-01-17 17:53:00,46.0,45.0,29.79,ENE,63,2.0,14.0,96,0.01,,,0.40,,2013-01-17 22:53:00,
2013-01-17 18:03:00,45.0,44.0,29.81,North,5,3.0,14.0,95,0.03,,,0.42,,2013-01-17 23:03:00,
2013-01-17 18:12:00,45.0,44.0,29.81,North,5,3.0,14.0,95,0.03,,,0.42,,2013-01-17 23:12:00,
2013-01-17 18:23:00,44.0,42.0,29.83,ENE,62,0.0,13.0,94,0.06,,,0.45,,2013-01-17 23:23:00,
2013-01-17 18:33:00,44.0,42.0,29.82,NE,54,5.0,11.0,94,0.08,,,0.47,,2013-01-17 23:33:00,
2013-01-17 18:43:00,44.0,42.0,29.82,NE,54,5.0,11.0,94,0.08,,,0.47,,2013-01-17 23:43:00,
2013-01-17 18:53:00,43.0,42.0,29.83,ENE,71,6.0,19.0,95,0.08,,,0.48,,2013-01-17 23:53:00,
2013-01-17 19:03:00,43.0,41.0,29.84,ENE,78,2.0,16.0,94,0.08,,,0.50,,2013-01-18 00:03:00,
2013-01-17 19:12:00,43.0,41.0,29.84,ENE,78,2.0,16.0,94,0.08,,,0.50,,2013-01-18 00:12:00,
2013-01-17 19:23:00,43.0,42.0,29.81,NE,44,2.0,12.0,95,0.07,,,0.52,,2013-01-18 00:23:00,
2013-01-17 19:32:00,43.0,42.0,29.81,NE,44,2.0,12.0,95,0.07,,,0.52,,2013-01-18 00:32:00,
2013-01-17 19:42:00,42.0,40.0,29.80,ENE,74,4.0,21.0,92,0.07,,,0.54,,2013-01-18 00:42:00,
2013-01-17 19:53:00,41.0,39.0,29.80,NE,41,4.0,19.0,93,0.08,,,0.56,,2013-01-18 00:53:00,
2013-01-17 20:03:00,40.0,38.0,29.80,NE,45,7.0,23.0,93,0.06,,,0.56,,2013-01-18 01:03:00,
2013-01-17 20:13:00,40.0,38.0,29.80,NE,45,7.0,23.0,93,0.06,,,0.56,,2013-01-18 01:13:00,
2013-01-17 20:23:00,40.0,38.0,29.81,North,360,3.0,26.0,92,0.09,,,0.61,,2013-01-18 01:23:00,
2013-01-17 20:33:00,40.0,38.0,29.96,NE,51,0.0,9.0,92,0.15,,,0.69,,2013-01-18 01:33:00,
2013-01-17 20:43:00,40.0,38.0,29.96,NE,51,0.0,9.0,92,0.15,,,0.69,,2013-01-18 01:43:00,
2013-01-17 20:53:00,39.0,37.0,29.88,North,10,4.0,11.0,93,0.20,,,0.76,,2013-01-18 01:53:00,
2013-01-17 21:03:00,38.0,36.0,29.88,NNW,332,4.0,15.0,94,0.25,,,0.81,,2013-01-18 02:03:00,
2013-01-17 21:12:00,38.0,36.0,29.88,NNW,332,4.0,15.0,94,0.25,,,0.81,,2013-01-18 02:12:00,
2013-01-17 21:23:00,38.0,36.0,29.89,NNW,345,4.0,20.0,93,0.21,,,0.82,,2013-01-18 02:23:00,
2013-01-17 21:33:00,38.0,36.0,29.95,North,5,3.0,13.0,93,0.17,,,0.85,,2013-01-18 02:33:00,
2013-01-17 21:43:00,38.0,36.0,29.95,North,5,3.0,13.0,93,0.17,,,0.85,,2013-01-18 02:43:00,
2013-01-17 21:53:00,37.0,35.0,29.92,East,93,1.0,9.0,92,0.11,,,0.87,,2013-01-18 02:53:00,
2013-01-17 22:02:00,36.0,34.0,29.92,NNW,329,1.0,10.0,93,0.10,,,0.90,,2013-01-18 03:02:00,
2013-01-17 22:12:00,36.0,34.0,29.92,NNW,329,1.0,10.0,93,0.10,,,0.90,,2013-01-18 03:12:00,
2013-01-17 22:23:00,35.0,33.0,29.93,NNW,344,0.0,9.0,94,0.09,,,0.91,,2013-01-18 03:23:00,
2013-01-17 22:33:00,35.0,34.0,29.93,ENE,70,2.0,7.0,95,0.07,,,0.92,,2013-01-18 03:33:00,
2013-01-17 22:42:00,35.0,34.0,29.93,ENE,70,2.0,7.0,95,0.07,,,0.92,,2013-01-18 03:42:00,
2013-01-17 22:53:00,35.0,34.0,29.93,ENE,70,2.0,3.0,95,0.06,,,0.93,,2013-01-18 03:53:00,
2013-01-17 23:02:00,35.0,34.0,29.96,NNE,30,0.0,7.0,95,0.04,,,0.94,,2013-01-18 04:02:00,
2013-01-17 23:12:00,35.0,34.0,29.96,NNE,30,0.0,7.0,95,0.04,,,0.94,,2013-01-18 04:12:00,
2013-01-17 23:22:00,36.0,35.0,29.98,NW,316,2.0,6.0,95,0.03,,,0.94,,2013-01-18 04:22:00,
2013-01-17 23:33:00,36.0,35.0,29.99,West,263,0.0,5.0,95,0.03,,,0.95,,2013-01-18 04:33:00,
2013-01-17 23:42:00,36.0,35.0,29.99,West,263,0.0,5.0,95,0.03,,,0.95,,2013-01-18 04:42:00,
2013-01-17 23:53:00,36.0,35.0,30.01,North,355,0.0,6.0,95,0.02,,,0.88,,2013-01-18 04:53:00,